Preview of NWS' New Version of Forecast
This preview is not operational and should not be used for support decisions.

Regional Weather Roundup (RWR)

Issued by National Weather Service (NWS)

                            
000
ASUS43 KDTX 200210
RWRMI 
MICHIGAN HOURLY REGIONAL WEATHER ROUNDUP
NATIONAL WEATHER SERVICE DETROIT/PONTIAC MI
1000 PM EDT FRI APR 19 2019

NOTE: "FAIR" INDICATES FEW OR NO CLOUDS BELOW 12,000 FEET WITH NO
SIGNIFICANT WEATHER AND/OR OBSTRUCTION TO VISIBILITY.

MIZ047>049-052>055-059>063-066>070-074>076-081>083-200300-
SOUTHEAST LOWER MICHIGAN
  
CITY           SKY/WX    TMP DP  RH WIND       PRES   REMARKS
ADRIAN         CLOUDY    40  34  79 NE21      29.73S WCI  30          
ALMA           CLOUDY    46  33  60 NE8       29.84F                  
ANN ARBOR      CLOUDY    40  35  83 N22G30    29.74R WCI  30          
BAD AXE        CLOUDY    40  34  78 NE17G23   29.83S WCI  31          
CARO           CLOUDY    40  34  79 NE8G17    29.82F WCI  34          
DETROIT CITY   CLOUDY    39  34  82 N16G29    29.75R WCI  30          
DETROIT        CLOUDY    40  33  76 N17G28    29.74R WCI  31          
FLINT          CLOUDY    40  34  79 NE20G25   29.81R WCI  30          
GROSSE ILE     CLOUDY    39  36  89 N17G29    29.71S WCI  30          
HILLSDALE      CLOUDY    40  34  80 N20G32    29.73F WCI  30          
HOWELL         CLOUDY    40  34  81 N12G20    29.78S WCI  32          

CITY           SKY/WX    TMP DP  RH WIND       PRES   REMARKS
JACKSON        CLOUDY    40  35  83 N16G33    29.77R WCI  31          
LAMBERTVILLE   DRIZZLE   40  37  90 N10G24    29.70F WCI  34          
LANSING        CLOUDY    42  35  76 NE16      29.82R                  
LAPEER         CLOUDY    39  36  86 NE14G26   29.80S WCI  31          
MASON          CLOUDY    41  35  78 N15G24    29.79S                  
MONROE         CLOUDY    41  40  98 N18G25    29.70S                  
MT. CLEMENS    DRIZZLE   39  39 100 N20G32    29.72F WCI  29          
PONTIAC        DRIZZLE   38  36  92 N18G30    29.75R WCI  28          
PORT HOPE        N/A     40  35  83 N20       29.83S WCI  30          
TRI CITIES     CLOUDY    44  36  73 NE14      29.85R                  
MIDLAND        CLOUDY    46  32  59 NE6       29.84F                  
TROY           CLOUDY    39  34  81 N15G28    29.77R WCI  31          
SAGINAW HB     CLOUDY    45  36  70 NE16G22   29.83S                  
$$
MIZ043>046-050>051-056>058-064>065-071>073-077>080-200300-
SOUTHWEST LOWER MICHIGAN
  
CITY           SKY/WX    TMP DP  RH WIND       PRES   REMARKS
BATTLE CREEK   CLOUDY    43  35  73 NE18G32   29.79R                  
BENTON HARBOR  FAIR      39  34  82 N3        29.81R                  
BIG RAPIDS     FAIR      46  25  43 NE3       29.86R                  
COLDWATER      CLOUDY    42  37  82 NE14G26   29.76S                  
FREMONT        FAIR      46  28  49 N8        29.86R                  
HOLLAND        FAIR      48  35  60 NE7       29.83R                  
GRAND RAPIDS   FAIR      45  34  65 NE14      29.82S                  
IONIA          CLOUDY    44  33  65 N12G18    29.82S                  
KALAMAZOO      CLOUDY    44  35  70 NE17G33   29.79S                  
LUDINGTON      FAIR      43  25  49 N6        29.90R                  
MARSHALL       CLOUDY    42  38  88 NE8G18    29.78F                  
MOUNT PLEASANT FAIR      45  32  60 N8        29.85S                  
MUSKEGON       FAIR      50  27  40 N13       29.85R                  
SOUTH HAVEN    FAIR      38  34  87 CALM      29.81S                  
$$
MIZ016>042-200300-
NORTHERN LOWER MICHIGAN
  
CITY           SKY/WX    TMP DP  RH WIND       PRES   REMARKS
ALPENA         FAIR      38  29  70 N6        29.91R WCI  33          
BEAVER ISLAND  FAIR      42  21  43 N6        29.94R                  
BELLAIRE       FAIR      43  27  52 N3        29.92S                  
CADILLAC       FAIR      42  26  54 N7        29.87R                  
CHARLEVOIX     FAIR      40  29  64 N8        29.96R WCI  35          
FRANKFORT      FAIR      45  24  42 N3        29.92R                  
GAYLORD        FAIR      40  25  55 N3        29.90R                  
GRAYLING       FAIR      35  28  75 CALM      29.88                   
HARBOR SPRINGS FAIR      43  25  49 CALM      29.92R                  
HOUGHTON LAKE  FAIR      42  24  49 NE7       29.87S                  
MANISTEE       FAIR      44  25  47 N6        29.91R                  
OSCODA         FAIR      41  31  67 NE18      29.88S                  
PELLSTON       FAIR      40  25  55 CALM      29.93R                  
ROGERS CITY    FAIR      39  30  70 NW7       29.93R WCI  34          
TRAVERSE CITY  FAIR      41  29  62 NE3       29.91R                  
$$
MIZ007>008-015-200300-
EASTERN UPPER MICHIGAN
  
CITY           SKY/WX    TMP DP  RH WIND       PRES   REMARKS
KINROSS        FAIR      36  26  67 N13       29.93F WCI  27          
MACKINAC ISLAN FAIR      40  24  52 N10G16    29.93R WCI  33          
NEWBERRY       FAIR      37  18  45 N3        29.94S                  
S. S. MARIE    FAIR      39  26  59 NW3       29.93S                  
MUNISING         N/A     33  26  75 S5        29.95F WCI  29          
$$
MIZ004>006-011>014-085-200300-
CENTRAL UPPER MICHIGAN
  
CITY           SKY/WX    TMP DP  RH WIND       PRES   REMARKS
MANISTIQUE     FAIR      40   5  23 N8        29.94S WCI  34          
ESCANABA       FAIR      44  13  28 N3        29.95S                  
MENOMINEE      FAIR      39  25  57 SE3       29.95S                  
SAWYER-GWINN   CLEAR     37  23  56 CALM      29.94F                  
$$
MIZ001>003-009>011-084-200300-
WESTERN UPPER MICHIGAN
  
CITY           SKY/WX    TMP DP  RH WIND       PRES   REMARKS
IRON MOUNTAIN  FAIR      43  21  41 CALM      29.93S                  
HOUGHTON       FAIR      42  21  43 CALM      29.93F                  
COPPER HARBOR    N/A     41  25  53 SW8       29.93F                  
IRONWOOD       FAIR      39  32  76 CALM      29.93F                  
$$

ABBREVIATIONS USED IN REMARKS
   TC - TEMPERATURE IN CELSIUS
  WCI - WIND CHILL INDEX
   HX - HEAT INDEX
  VSB - VISIBILITY